Starlink 31631

operational
NORAD ID: 59459 Int'l Des: 2024-068 Owner: SPXS Country: US Constellation: starlink
LEOCIRCULAR

About Starlink 31631

Description loading...

Live Position

Loading 3D Globe...

Upcoming Passes

Altitude History

Altitude vs Time

uPlot chart will show altitude changes over time

Two-Line Element Set

1 59459U 24068E 25258.17651474 .00000273 00000-0 19451-4 0 9995
2 59459 43.0023 301.9757 0001015 275.3895 84.6841 15.27579362 81720
Epoch: Sep 15, 2025 • Age: 22 hours

Current Status

Altitude 486.6 km
Velocity 7.63 km/s
Sub-Earth Point 41.73°N, 9.52°E
Launch Date Apr 10, 2024
Age 1.4 years
Type internet

Technical Details

Classification Payload
Mass 730.00 kg
Dry Mass 700.00 kg
Total Mass 730.00 kg
Length 0.30 m
Diameter 4.10 m
Span 29.00 m
Shape Box + pan
Manufacturer SPXS
Bus Type Starlink V2M
Phase Status In Orbit
Owner/State SPXS/US

Large Constellations

Loading constellations...